Flag for U.S.A. Weather past 2 weeks in Chicago, Illinois, U.S.A.

Now
67 °F

Passing clouds.


Feels Like: 67 °F
Forecast: 63 / 70 °F
Wind: 17 mph from North

Location: Chicago Midway Airport

Current Time: Jul 28, 2014 at 2:19:40 AM

Latest Report: Jul 28, 2014 at 1:51 AM


Visibility: 10 mi

Pressure: 29.89 "Hg

Humidity: 59%

Dew point: 52 °F

Location of ChicagoLocation

Historic Weather in Chicago — Graph

°F

Chicago temperature yesterday

Maximum temperature yesterday: 88 °F (at 12:51 PM)
Minimum temperature yesterday: 67 °F (at 11:51 PM)
Average temperature yesterday: 78 °F

Past Weeks' High & Low Weather Summary

 TemperatureHumidityPressure
High88 °F (Jul 22, 6:51 PM)97% (Jul 13, 2:51 AM)30.16 "Hg (Jul 13, 2:51 AM)
Low56 °F (Jul 16, 5:51 AM)35% (Jul 14, 4:51 PM)29.67 "Hg (Jul 27, 2:51 PM)
Average72 °F63%29.97 "Hg
* Reported Jul 13 12:51 AM — Jul 28 12:51 AM, Chicago, Weather by CustomWeather, © 2014

Note: Actual official high and low records may vary slightly from our data, if they occured in-between our weather recording intervals... More about our weather records

Advertising

Chicago weather history for previous 24 hours

 ConditionsComfort  
Time TempWeatherWind HumidityBarometerVisibility
12:51 AM
Jul 28
67 °FPassing clouds.20 mph61%29.88 "Hg10 mi
11:51 PM
Jul 27
67 °FPassing clouds.17 mph73%29.88 "Hg10 mi
10:51 PM68 °FMostly cloudy.15 mph82%29.86 "Hg10 mi
9:51 PM69 °FPartly cloudy.9 mph81%29.83 "Hg10 mi
8:51 PM74 °FPartly sunny.15 mph56%29.80 "Hg10 mi
7:51 PM76 °FBroken clouds.25 mph50%29.78 "Hg10 mi
6:51 PM77 °FScattered clouds.22 mph47%29.75 "Hg10 mi
5:51 PM79 °FBroken clouds.22 mph44%29.72 "Hg10 mi
4:51 PM82 °FBroken clouds.22 mph41%29.71 "Hg10 mi
3:51 PM84 °FBroken clouds.21 mph37%29.69 "Hg10 mi
2:51 PM86 °FPartly sunny.28 mph37%29.67 "Hg10 mi
1:51 PM87 °FPartly sunny.22 mph35%29.67 "Hg10 mi
12:51 PM88 °FScattered clouds.17 mph36%29.67 "Hg10 mi
11:51 AM86 °FScattered clouds.16 mph46%29.69 "Hg10 mi
10:51 AM86 °FPassing clouds.12 mph53%29.71 "Hg10 mi
9:51 AM83 °FPassing clouds.9 mph61%29.71 "Hg10 mi
8:51 AM81 °FPassing clouds.8 mph72%29.71 "Hg10 mi
7:51 AM76 °FPassing clouds.10 mph88%29.73 "Hg7 mi
6:51 AM74 °FFog.7 mph91%29.73 "Hg5 mi
5:51 AM72 °FFog.5 mph93%29.74 "Hg4 mi
4:51 AM72 °FFog.6 mph93%29.75 "Hg4 mi
3:51 AM73 °FFog.7 mph90%29.75 "Hg4 mi
2:51 AM73 °FFog.No wind94%29.76 "Hg4 mi
Weather by CustomWeather, © 2014

See weather overviewHow to use our weather pages